BCCSAT 1

Last updated on Sun Jun 06 2021 00:35:26 GMT+0000 (Coordinated Universal Time)

1 48041U 21022AK 21156.72189031 .00000735 00000-0 53814-4 0 9990 2 48041 97.5593 59.2062 0016058 349.0383 97.2143 15.06502724 10088

Satellite not in orbit

BCCSAT 1